Regional Weather Roundup
Issued by NWS

Home | Current Version | Previous Version | Text Only | Print | Product List | Glossary Off
Versions: 1 2 3 4 5 6 7 8 9 10 11 12 13 14 15 16 17 18 19 20 21 22 23 24 25 26 27 28 29 30 31 32 33 34 35 36 37 38 39 40 41 42 43 44 45 46 47 48 49 50

000
ASUS43 KFSD 281002
RWRSD

WEATHER ROUNDUP FOR SOUTH DAKOTA
NATIONAL WEATHER SERVICE SIOUX FALLS SD
500 AM CDT THU APR 28 2016

NOTE: "FAIR" INDICATES FEW OR NO CLOUDS BELOW 12,000 FEET WITH NO
SIGNIFICANT WEATHER AND/OR OBSTRUCTIONS TO VISIBILITY.


SDZ001>005-009-010-012>017-281100-
NORTHWEST AND NORTH CENTRAL SOUTH DAKOTA

CITY           SKY/WX    TMP DP  RH WIND       PRES   REMARKS
BUFFALO          N/A     34  32  92 N12       29.93R WCI  25
FAITH            N/A     32  30  92 N9        29.96R WCI  24
MOBRIDGE       LGT RAIN  35  33  92 E6        29.95R
$$

SDZ012>016-024>037-041>051-057-063-072>074-281100-
SOUTHWEST AND SOUTH CENTRAL SOUTH DAKOTA

CITY           SKY/WX    TMP DP  RH WIND       PRES   REMARKS
RAPID CTY ARPT LGT SNOW  32  31  96 N14       29.96R FOG     WCI  22
PIERRE         CLOUDY    35  33  92 NE13      29.93R WCI  26
CUSTER         CLOUDY    27  21  78 VRB6      29.89R WCI  20
PHILIP         CLOUDY    34  33  96 N14       29.95R WCI  25
PINE RIDGE     CLOUDY    32  29  88 NW7       29.95R WCI  26
WINNER         LGT RAIN  39  36  89 NW10      29.89R FOG
$$

SDZ004>011-016>023-039-040-281100-
NORTHEAST SOUTH DAKOTA

CITY           SKY/WX    TMP DP  RH WIND       PRES   REMARKS
ABERDEEN       CLOUDY    38  34  85 NE13      29.95R
WATERTOWN      CLOUDY    37  30  75 NE14      29.88R
BROOKINGS      LGT RAIN  38  36  92 NE10G21   29.83R
SISSETON         N/A     38  31  76 NE12      29.94S
$$

SDZ017-020-022-023-036>040-048>070-281100-
SOUTHEAST SOUTH DAKOTA

CITY           SKY/WX    TMP DP  RH WIND       PRES   REMARKS
SIOUX FALLS    LGT RAIN  40  37  89 NE14      29.80R
HURON          CLOUDY    38  35  89 NE12      29.89R
MITCHELL       LGT RAIN  42  40  92 NE18      29.86R
YANKTON        CLOUDY    43  37  81 N9        29.80R
$$

ABBREVIATIONS USED IN REMARKS
   TC - TEMPERATURE IN CELSIUS
  WCI - WIND CHILL INDEX
   HX - HEAT INDEX
  VSB - VISIBILITY





USA.gov is the U.S. government's official web portal to all federal, state and local government web resources and services.